User: anonymous   Login
Location: Space Photons Observatory
(33.2428°N, 111.5467°W)
Time: 18:39:52
(UTC-07:00)
Language:

RESURS DK-1 - Orbit

View from above orbital plane
View from above orbital plane
View from above satellite
View from above satellite

Ground track
Ground track

The orbit data is extracted from the following two-line orbital elements,

1 29228U 06021A   17112.90454383 +.00000428 +00000-0 +39854-4 0  9997
2 29228 069.9357 238.7244 0002186 033.0987 327.0310 15.02134506599793
Epoch (UTC): 22 April 2017 21:42:32
Eccentricity: 0.0002186
inclination: 69.9357°
perigee height: 559 km
apogee height: 562 km
right ascension of ascending node: 238.7244°
argument of perigee: 33.0987°
revolutions per day: 15.02134506
mean anomaly at epoch: 327.0310°
orbit number at epoch: 59979

The dashed part of the orbit path shows where the satellite is in the earth's shadow,  

DLR